Tracking 29892 objects as of 21-Nov-2024
HD Live streaming from Space Station
objects crossing your sky now

DELTA 1 DEB

Track DELTA 1 DEB now!
10-day predictions


NORAD ID: 37663
Int'l Code: 1978-026KA
Perigee: 805.4 km
Apogee: 859.3 km
Inclination: 98.9 °
Period: 101.4 minutes
Semi major axis: 7203 km
RCS: 0.0055 m2 (small)
Launch date: March 5, 1978
Source: United States (US)
Launch site: AIR FORCE WESTERN TEST RANGE (AFWTR)

Note: This is SATELLITE DEBRIS
Your satellite tracking list
Your tracking list is empty




NASA's NSSDC Master Catalog

Two Line Element Set (TLE):
1 37663U 78026KA  24321.86051597  .00000849  00000-0  41751-3 0  9993
2 37663  98.9299 342.5261 0037420 324.9576  34.9138 14.20035139121794
Source of the keplerian elements: AFSPC